This demonstration page uses our WeatherBlox Daily Observations layout. Learn more.

Left ArrowRight Arrow

38.20091, -84.87328

Hourly Observations for August 21, 2018

Temp ( °F °C ) Dew Point ( °F °C ) Humidity (%) Winds ( mph kmh ) Pressure ( in mb ) Visibility ( mi km ) Precip ( " mm )
12:53 am 00:53 Clear 76 24.4 72 22.2 88 88 SSE 8 13 29.85 1011 10 16 0.00 0.00
2:53 am 02:53 Mostly Cloudy with Nearby Thunderstorms 74 23.3 71 21.7 91 91 SSW 17 28 29.83 1010 7 11 0.01 0.25
3:40 am 03:40 Mostly Cloudy 73 22.8 69 20.6 87 87 SSW 17 28 29.83 1010 10 16 0.11 2.79
3:53 am 03:53 Mostly Cloudy with Light Rain 73 22.8 70 21.1 90 90 S 15 24 29.82 1010 10 16 0.11 2.79
4:53 am 04:53 Mostly Cloudy with Light Rain 73 22.8 70 21.1 90 90 SW 9 15 29.82 1010 10 16 0.01 0.25
5:53 am 05:53 Cloudy 72 22.2 69 20.6 91 91 SSW 9 15 29.83 1010 10 16 0.00 0.03
6:01 am 06:01 Cloudy 72 22.2 69 20.6 91 91 SSW 12 19 29.83 1010 10 16 0.00 0.00
6:53 am 06:53 Mostly Cloudy 72 22.2 69 20.6 91 91 SSW 10 17 29.84 1011 10 16 0.00 0.03
7:10 am 07:10 Mostly Cloudy 72 22.2 69 20.6 91 91 SW 8 13 29.85 1011 10 16 0.00 0.00
7:46 am 07:46 Mostly Cloudy 71 21.7 69 20.6 94 94 SW 6 9 29.85 1011 10 16 0.00 0.00
7:53 am 07:53 Mostly Cloudy 72 22.2 69 20.6 91 91 WSW 5 7 29.86 1011 10 16 0.00 0.00
8:21 am 08:21 Mostly Cloudy 72 22.2 69 20.6 91 91 SW 6 9 29.85 1011 10 16 0.00 0.00
8:41 am 08:41 Mostly Cloudy 73 22.8 69 20.6 87 87 SSW 7 11 29.85 1011 10 16 0.00 0.00
8:53 am 08:53 Mostly Cloudy 73 22.8 70 21.1 90 90 SW 9 15 29.87 1011 10 16 0.00 0.00
9:53 am 09:53 Cloudy 73 22.8 69 20.6 87 87 SW 10 17 29.87 1012 10 16 0.00 0.00
10:30 am 10:30 Cloudy 74 23.3 69 20.6 85 85 SW 9 15 29.88 1012 10 16 0.00 0.00
10:53 am 10:53 Cloudy 76 24.4 70 21.1 82 82 SW 8 13 29.87 1012 10 16 0.00 0.00
11:45 am 11:45 Mostly Cloudy 75 23.9 71 21.7 88 88 WSW 7 11 29.85 1011 10 16 0.01 0.25
11:53 am 11:53 Cloudy 76 24.4 71 21.7 85 85 WSW 3 6 29.86 1011 10 16 0.01 0.25
12:34 pm 12:34 Cloudy with Rain 76 24.4 71 21.7 85 85 WSW 9 15 29.85 1011 4 6 0.03 0.76
12:42 pm 12:42 Cloudy with Light Rain 76 24.4 71 21.7 85 85 SW 9 15 29.85 1011 3 5 0.05 1.27
12:53 pm 12:53 Cloudy with Light Rain 76 24.4 71 21.7 85 85 W 5 7 29.85 1011 10 16 0.05 1.27
1:03 pm 13:03 Cloudy with Light Rain 76 24.4 71 21.7 85 85 WSW 9 15 29.85 1011 5 8 0.01 0.25
1:53 pm 13:53 Mostly Cloudy with Rain 73 22.8 67 19.4 81 81 W 8 13 29.85 1011 4 6 0.05 1.27
2:53 pm 14:53 Mostly Sunny 81 27.2 69 20.6 67 67 W 12 19 29.84 1011 10 16 0.00 0.03
3:53 pm 15:53 Cloudy 75 23.9 69 20.6 82 82 WSW 6 9 29.85 1011 10 16 0.00 0.03
4:53 pm 16:53 Mostly Cloudy 81 27.2 70 21.1 69 69 W 8 13 29.85 1011 10 16 0.00 0.00
5:53 pm 17:53 Cloudy 78 25.6 69 20.6 74 74 W 8 13 29.85 1011 10 16 0.00 0.00
6:53 pm 18:53 Cloudy 78 25.6 70 21.1 76 76 WSW 5 7 29.86 1011 10 16 0.00 0.00
7:03 pm 19:03 Mostly Cloudy 79 26.1 70 21.1 74 74 WSW 7 11 29.85 1011 10 16 0.00 0.00
7:17 pm 19:17 Partly Cloudy 78 25.6 70 21.1 76 76 WSW 6 9 29.85 1011 10 16 0.00 0.00
7:53 pm 19:53 Sunny 76 24.4 70 21.1 82 82 WSW 6 9 29.87 1012 10 16 0.00 0.00
8:53 pm 20:53 Mostly Cloudy 75 23.9 70 21.1 84 84 SSW 6 9 29.90 1012 10 16 0.00 0.00
9:53 pm 21:53 Cloudy 74 23.3 70 21.1 88 88 SW 8 13 29.91 1013 10 16 0.00 0.03
10:53 pm 22:53 Cloudy 72 22.2 69 20.6 91 91 Calm 29.94 1014 10 16 0.01 0.25
11:53 pm 23:53 Cloudy 71 21.7 69 20.6 94 94 WSW 5 7 29.94 1014 10 16 0.00 0.00

Powered by AerisWeather